Hourly Weather Snyatynka

Today, 24 January, Sunday

Time Temperature Precipitation Wind Pressure Humidity
00:00 +5°C° 0.1 mm 2 mps 721 mmHg 87%
01:00 +4°C° 0.1 mm 2 mps 720 mmHg 88%
02:00 +4°C° 0.1 mm 2 mps 720 mmHg 89%
03:00 +4°C° 0 mm 2 mps 720 mmHg 90%
04:00 +4°C° 0 mm 2 mps 719 mmHg 90%
05:00 +5°C° 0 mm 1 mps 719 mmHg 91%
06:00 +4°C° 0.3 mm 2 mps 719 mmHg 92%
07:00 +4°C° 0.3 mm 2 mps 719 mmHg 93%
08:00 +4°C° 0.3 mm 2 mps 719 mmHg 95%
09:00 +4°C° 0.2 mm 2 mps 719 mmHg 93%
10:00 +5°C° 0.2 mm 2 mps 719 mmHg 91%
11:00 +5°C° 0.2 mm 2 mps 719 mmHg 90%
12:00 +4°C° 0 mm 3 mps 719 mmHg 87%
13:00 +5°C° 0 mm 4 mps 719 mmHg 85%
14:00 +5°C° 0 mm 4 mps 719 mmHg 83%
15:00 +4°C° 0 mm 4 mps 719 mmHg 85%
16:00 +4°C° 0 mm 3 mps 719 mmHg 87%
17:00 +3°C° 0 mm 3 mps 720 mmHg 89%
18:00 +4°C° 0.1 mm 2 mps 720 mmHg 91%
19:00 +4°C° 0.1 mm 2 mps 721 mmHg 92%
20:00 +3°C° 0.1 mm 2 mps 721 mmHg 93%
21:00 +3°C° 0.1 mm 2 mps 721 mmHg 93%
22:00 +3°C° 0.1 mm 2 mps 721 mmHg 93%
23:00 +3°C° 0.1 mm 2 mps 722 mmHg 93%

Tomorrow, 25 January, Monday

Time Temperature Precipitation Wind Pressure Humidity
00:00 +3°C° 0 mm 1 mps 722 mmHg 94%
01:00 +3°C° 0 mm 1 mps 722 mmHg 94%
02:00 +2°C° 0 mm 1 mps 722 mmHg 94%
03:00 +2°C° 0.1 mm 1 mps 722 mmHg 95%
04:00 +2°C° 0.1 mm 1 mps 722 mmHg 96%
05:00 +2°C° 0.1 mm 1 mps 722 mmHg 97%
06:00 +1°C° 0.2 mm 2 mps 722 mmHg 97%
07:00 -1°C° 0.2 mm 2 mps 722 mmHg 97%
08:00 -1°C° 0.2 mm 2 mps 722 mmHg 97%
09:00 -1°C° 0.9 mm 3 mps 721 mmHg 97%
10:00 -2°C° 0.9 mm 4 mps 721 mmHg 97%
11:00 -2°C° 0.9 mm 4 mps 721 mmHg 97%
12:00 -2°C° 1.7 mm 5 mps 720 mmHg 97%
13:00 -3°C° 1.7 mm 6 mps 720 mmHg 97%
14:00 -3°C° 1.7 mm 6 mps 719 mmHg 98%
15:00 -3°C° 2.6 mm 7 mps 719 mmHg 97%
16:00 -5°C° 2.6 mm 8 mps 719 mmHg 97%
17:00 -5°C° 2.6 mm 8 mps 719 mmHg 97%
18:00 -5°C° 2.7 mm 9 mps 719 mmHg 96%
19:00 -5°C° 2.7 mm 9 mps 719 mmHg 96%
20:00 -7°C° 2.7 mm 10 mps 719 mmHg 95%
21:00 -7°C° 1.9 mm 10 mps 719 mmHg 95%
22:00 -7°C° 1.9 mm 10 mps 719 mmHg 95%
23:00 -7°C° 1.9 mm 11 mps 719 mmHg 95%

Day after tomorrow, 26 January, Tuesday

Time Temperature Precipitation Wind Pressure Humidity
00:00 -7°C° 1.5 mm 10 mps 720 mmHg 94%
01:00 -7°C° 1.5 mm 10 mps 720 mmHg 94%
02:00 -8°C° 1.5 mm 10 mps 720 mmHg 94%
03:00 -7°C° 0.6 mm 10 mps 721 mmHg 92%
04:00 -7°C° 0.6 mm 10 mps 721 mmHg 91%
05:00 -7°C° 0.6 mm 10 mps 722 mmHg 89%
06:00 -7°C° 0.1 mm 10 mps 722 mmHg 89%
07:00 -6°C° 0.1 mm 9 mps 723 mmHg 89%
08:00 -8°C° 0.1 mm 9 mps 724 mmHg 89%
09:00 -6°C° 0.1 mm 9 mps 724 mmHg 89%
10:00 -7°C° 0.1 mm 10 mps 724 mmHg 88%
11:00 -7°C° 0.1 mm 10 mps 725 mmHg 88%
12:00 -6°C° 0.1 mm 9 mps 725 mmHg 87%
13:00 -6°C° 0.1 mm 9 mps 726 mmHg 87%
14:00 -5°C° 0.1 mm 9 mps 726 mmHg 86%
15:00 -6°C° 0 mm 8 mps 726 mmHg 87%
16:00 -6°C° 0 mm 8 mps 727 mmHg 87%
17:00 -6°C° 0 mm 7 mps 727 mmHg 87%
18:00 -6°C° 0 mm 7 mps 728 mmHg 88%
19:00 -6°C° 0 mm 7 mps 728 mmHg 88%
20:00 -5°C° 0 mm 6 mps 728 mmHg 88%
21:00 -5°C° 0.1 mm 6 mps 729 mmHg 89%
22:00 -5°C° 0.1 mm 6 mps 729 mmHg 90%
23:00 -6°C° 0.1 mm 6 mps 729 mmHg 91%

27 January, Wednesday

Time Temperature Precipitation Wind Pressure Humidity
00:00 -6°C° 0.1 mm 6 mps 729 mmHg 90%
01:00 -6°C° 0.1 mm 6 mps 729 mmHg 90%
02:00 -6°C° 0.1 mm 6 mps 730 mmHg 90%
03:00 -6°C° 0 mm 6 mps 730 mmHg 88%
04:00 -6°C° 0 mm 5 mps 730 mmHg 87%
05:00 -6°C° 0 mm 5 mps 730 mmHg 86%
06:00 -7°C° 0 mm 5 mps 730 mmHg 84%
07:00 -7°C° 0 mm 4 mps 730 mmHg 83%
08:00 -8°C° 0 mm 4 mps 730 mmHg 82%
09:00 -7°C° 0 mm 4 mps 730 mmHg 81%
10:00 -5°C° 0 mm 4 mps 731 mmHg 81%
11:00 -4°C° 0 mm 4 mps 731 mmHg 81%
12:00 -3°C° 0 mm 4 mps 731 mmHg 81%
13:00 -3°C° 0 mm 4 mps 730 mmHg 81%
14:00 -2°C° 0 mm 4 mps 730 mmHg 81%
15:00 -4°C° 0 mm 4 mps 730 mmHg 82%
16:00 -5°C° 0 mm 3 mps 730 mmHg 83%
17:00 -6°C° 0 mm 3 mps 730 mmHg 84%
18:00 -7°C° 0 mm 3 mps 731 mmHg 84%
19:00 -7°C° 0 mm 3 mps 731 mmHg 84%
20:00 -8°C° 0 mm 3 mps 731 mmHg 84%
21:00 -8°C° 0 mm 3 mps 731 mmHg 84%
22:00 -7°C° 0 mm 3 mps 731 mmHg 84%
23:00 -7°C° 0 mm 3 mps 731 mmHg 84%

28 January, Thursday

Time Temperature Precipitation Wind Pressure Humidity
00:00 -6°C° 0 mm 2 mps 731 mmHg 85%
01:00 -7°C° 0 mm 2 mps 731 mmHg 86%
02:00 -7°C° 0 mm 2 mps 731 mmHg 86%
03:00 -7°C° 0 mm 2 mps 731 mmHg 87%
04:00 -4°C° 0 mm 1 mps 731 mmHg 88%
05:00 -4°C° 0 mm 1 mps 731 mmHg 88%
06:00 -4°C° 0 mm 1 mps 731 mmHg 90%
07:00 -4°C° 0 mm 1 mps 731 mmHg 91%
08:00 -6°C° 0 mm 2 mps 731 mmHg 92%
09:00 -5°C° 0 mm 2 mps 731 mmHg 92%
10:00 -4°C° 0 mm 2 mps 731 mmHg 92%
11:00 -3°C° 0 mm 2 mps 731 mmHg 91%
12:00 -2°C° 0.1 mm 2 mps 731 mmHg 91%
13:00 -2°C° 0.1 mm 2 mps 731 mmHg 91%
14:00 -1°C° 0.1 mm 2 mps 731 mmHg 91%
15:00 -2°C° 0 mm 2 mps 730 mmHg 91%
16:00 -3°C° 0 mm 2 mps 730 mmHg 91%
17:00 -2°C° 0 mm 1 mps 730 mmHg 90%
18:00 -3°C° 0 mm 1 mps 730 mmHg 90%
19:00 -3°C° 0 mm 1 mps 730 mmHg 89%
20:00 -4°C° 0 mm 1 mps 729 mmHg 88%

29 January, Friday

Time Temperature Precipitation Wind Pressure Humidity
Show more